• Join FlightAware (Why Join?)
  • Login
  • US Flag 
01:28AM EST


 

Airport Tracker/Info


-or-


 

Live Flight TrackerFlight Track Log ✈ SLQ9742 ✈ 28-Mar-2014 ✈ CYHM - KJFK

Flight Track Log - Related Links

Times and Time Zones

All times are in EDT time to prevent confusion due to time zone crossing. See the SLQ9742 flight status page for this flight to view local times or setup timezone preferences in your user account.

Time Position Orientation Groundspeed Altitude Reporting Facility
EDT Latitude Longitude Course Direction KTS MPH feet Rate Location/Type
12:19AM 43.1667 -79.9000 270° West 30 35 800  Level Toronto Center
12:20AM 43.1667 -79.9333 270° West 30 35 800 750 Level Toronto Center
12:21AM 43.1500 -79.8667 115° Southeast 170 196 2,300 1,850 Climbing Toronto Center
12:22AM 43.1333 -79.8167 115° Southeast 180 207 4,500 2,100 Climbing Toronto Center
12:23AM 43.1167 -79.7500 109° East 180 207 6,500 2,000 Climbing Toronto Center
12:24AM 43.0833 -79.6833 124° Southeast 190 219 8,500 1,800 Climbing Toronto Center
12:25AM 43.0667 -79.6167 109° East 200 230 10,100 1,700 Climbing Toronto Center
12:26AM 43.0333 -79.5500 124° Southeast 200 230 11,900 1,600 Climbing Toronto Center
12:27AM 43.0167 -79.4667 105° East 200 230 13,300 1,400 Climbing Toronto Center
12:28AM 42.9833 -79.4000 124° Southeast 210 242 14,700 1,350 Climbing Toronto Center
12:29AM 42.9667 -79.3333 109° East 220 253 16,000 1,350 Climbing Toronto Center
12:30AM 42.9333 -79.2500 119° Southeast 220 253 17,400 1,150 Climbing Toronto Center
12:31AM 42.9000 -79.1833 124° Southeast 220 253 18,300 950 Climbing Toronto Center
12:32AM 42.8667 -79.1167 124° Southeast 230 265 19,300 900 Climbing Toronto Center
12:33AM 42.8500 -79.0167 103° East 240 276 20,100 750 Climbing Toronto Center
12:34AM 42.8167 -78.9500 124° Southeast 250 288 20,800 500 Climbing Toronto Center
12:35AM 42.7667 -78.8333 120° Southeast 270 311 21,100 100 Climbing Toronto Center
12:36AM 42.7333 -78.7500 119° Southeast 290 334 21,000 -50 Descending Toronto Center
12:37AM 42.7000 -78.6333 111° Southeast 300 345 21,000  Level Toronto Center
12:38AM 42.6667 -78.5500 119° Southeast 300 345 21,000 -50 Level Toronto Center
12:39AM 42.6167 -78.4333 120° Southeast 300 345 20,900  Descending Toronto Center
12:40AM 42.5833 -78.3500 118° Southeast 300 345 21,000 50 Climbing Toronto Center
12:41AM 42.5333 -78.2500 124° Southeast 300 345 21,000  Level Toronto Center
12:42AM 42.5000 -78.1333 111° Southeast 300 345 21,000 50 Level Toronto Center
12:43AM 42.4667 -78.0500 118° Southeast 300 345 21,100 50 Climbing Toronto Center
12:44AM 42.4333 -77.9333 111° Southeast 300 345 21,100  Level Toronto Center
12:45AM 42.3833 -77.8500 129° Southeast 300 345 21,100 -50 Level Toronto Center
12:46AM 42.3500 -77.7667 118° Southeast 300 345 21,000 -50 Descending Toronto Center
12:47AM 42.3167 -77.6500 111° Southeast 300 345 21,000  Level Toronto Center
12:48AM 42.2833 -77.5667 118° Southeast 300 345 21,000  Level Toronto Center
12:49AM 42.2333 -77.4500 120° Southeast 310 357 21,000  Level Toronto Center
12:50AM 42.1833 -77.3667 129° Southeast 310 357 21,000 50 Level Toronto Center
12:51AM 42.1333 -77.2500 120° Southeast 310 357 21,100 55 Climbing Toronto Center
12:52AM 42.1222 -77.1961 106° East 310 357 21,100 -67 Level New York Center
12:52AM 42.0978 -77.1356 119° Southeast 304 350 21,000 -60 Descending Cleveland Center
12:53AM 42.0561 -77.0361 119° Southeast 304 350 21,000  Level Cleveland Center
12:54AM 42.0150 -76.9383 119° Southeast 304 350 21,000  Level Cleveland Center
12:55AM 41.9744 -76.8386 119° Southeast 304 350 21,000  Level Cleveland Center
12:56AM 41.9325 -76.7419 120° Southeast 304 350 21,000  Level Cleveland Center
12:57AM 41.8914 -76.6442 119° Southeast 303 349 21,000  Level Cleveland Center
12:58AM 41.8492 -76.5467 120° Southeast 303 349 21,000  Level Cleveland Center
12:59AM 41.8072 -76.4500 120° Southeast 303 349 21,000  Level Cleveland Center
01:00AM 41.7681 -76.3528 118° Southeast 301 346 21,000 43 Level Cleveland Center
01:02AM 41.7089 -76.2197 121° Southeast 305 351 21,100  Climbing New York Center
01:03AM 41.6694 -76.1247 119° Southeast 305 351 21,000 -50 Descending New York Center
01:04AM 41.6278 -76.0297 120° Southeast 305 351 21,000  Level New York Center
01:05AM 41.5861 -75.9350 120° Southeast 305 351 21,000  Level New York Center
01:06AM 41.5444 -75.8403 120° Southeast 305 351 21,000  Level New York Center
01:07AM 41.5025 -75.7514 122° Southeast 298 343 21,000  Level New York Center
01:08AM 41.4628 -75.6542 119° Southeast 298 343 21,000  Level New York Center
01:09AM 41.4250 -75.5575 118° Southeast 298 343 21,000  Level New York Center
01:10AM 41.3831 -75.4633 121° Southeast 298 343 21,000  Level New York Center
01:11AM 41.3428 -75.3692 120° Southeast 298 343 21,000  Level New York Center
01:12AM 41.3028 -75.2781 120° Southeast 293 337 21,000 50 Level New York Center
01:13AM 41.2603 -75.1842 121° Southeast 293 337 21,100  Climbing New York Center
01:14AM 41.2200 -75.0906 120° Southeast 293 337 21,000 -50 Descending New York Center
01:15AM 41.1797 -74.9969 120° Southeast 293 337 21,000  Level New York Center
01:16AM 41.1392 -74.9064 121° Southeast 293 337 21,000 -50 Level New York Center
01:17AM 41.0967 -74.8128 121° Southeast 293 337 20,900 -150 Descending New York Center
01:18AM 41.0581 -74.7197 119° Southeast 293 337 20,700 -300 Descending New York Center
01:19AM 41.0153 -74.6264 121° Southeast 293 337 20,300 -400 Descending New York Center
01:20AM 40.9728 -74.5278 120° Southeast 293 337 19,900 -500 Descending New York Center
01:21AM 40.9300 -74.4294 120° Southeast 299 344 19,300 -500 Descending New York Center
01:21AM 40.9000 -74.3500 117° Southeast 300 345 19,000 -222 Descending New York TRACON
01:22AM 40.8500 -74.2667 128° Southeast 291 335 18,900  Descending New York TRACON
01:23AM 40.8167 -74.1833 118° Southeast 286 329 19,000 56 Climbing New York TRACON
01:24AM 40.7833 -74.1000 118° Southeast 285 328 19,000 -1,619 Level New York TRACON
01:25AM 40.7333 -73.9833 119° Southeast 302 348 15,600 -3,095 Descending New York TRACON
01:26AM 40.7000 -73.9000 118° Southeast 276 318 12,500 -3,450 Descending New York TRACON
01:27AM 40.6500 -73.8167 128° Southeast 263 303 8,700 -3,600 Descending New York TRACON
01:28AM 40.6500 -73.7333 90° East 298 343 5,300 -2,350 Descending New York TRACON
01:29AM 40.6667 -73.6500 75° East 202 232 4,000 -1,000 Descending New York TRACON
01:30AM 40.7000 -73.6333 21° North 195 224 3,300 -950 Descending New York TRACON
01:31AM 40.6833 -73.7000 252° West 157 181 2,100 -1,200 Descending New York TRACON
01:32AM 40.6667 -73.7333 237° Southwest 138 159 900 6,259 Descending New York TRACON
01:34AM 40.6394 -73.8014 242° Southwest 121 139 19,000 6,704 Climbing New York Center
01:35AM 40.6239 -73.8417 243° Southwest 121 139 19,000  Level New York Center